Regional Weather Roundup
Issued by NWS

Home | Current Version | Previous Version | Text Only | Print | Product List | Glossary On
Versions: 1 2 3 4 5 6 7 8 9 10 11 12 13 14 15 16 17 18 19 20 21 22 23 24 25 26 27 28 29 30 31 32 33 34 35 36 37 38 39 40 41 42 43 44 45 46 47 48 49 50
000
ASCA44 KEWX 310020
RWRMX

LATIN AMERICA AND CARIBBEAN REGIONAL WEATHER ROUNDUP
NATIONAL WEATHER SERVICE AUSTIN/SAN ANTONIO TX
700 PM CDT TUE AUG 30 2016

NOTE: "FAIR" INDICATED FEW OR NO CLOUDS BELOW 12,000 FEET WITH NO
SIGNIFICANT WEATHER AND/OR OBSTRUCTIONS TO VISIBILITY.

BAJA CALIFORNIA

CITY           SKY/WX    TMP DP  RH WIND       PRES   REMARKS
LORETO         MOSUNNY   93  75  55 SE6       29.70S HX 104
LA PAZ         SUNNY     93  55  27 N7        29.75  HX  91
MEXICALI       SUNNY    111  37   8 S3        29.67  HX 104
S.J. DEL CABO  MOSUNNY   88  66  48 SE14      29.77S HX  90
TIJUANA        SUNNY     82  55  39 NW8       29.83F

NORTHWESTERN MEXICO

CITY           SKY/WX    TMP DP  RH WIND       PRES   REMARKS
CULIACAN       PTSUNNY   88  77  70 CALM      29.73  HX 100
DURANGO        CLOUDY    61  57  88 CALM      30.16
GUAYMAS        MOSUNNY   91  79  66 S12       29.67  HX 107
HERMOSILLO     MOSUNNY  106  63  24 W7        29.72F HX 108
CD. JUAREZ     CLOUDY    79  63  57 SE12      30.06
LOS MOCHIS     MOSUNNY   88  70  55 S9        29.74F HX  92
OBREGON        RAIN      79  66  65 NE33      29.78

NORTHEASTERN MEXICO

CITY           SKY/WX    TMP DP  RH WIND       PRES   REMARKS
CHIHUAHUA      PTSUNNY   70  66  88 CALM      30.11
MATAMOROS      PTSUNNY   86  73  66 E12       29.82  HX  93
MONCLOVA       PTSUNNY   82  61  47 NE6       29.97F
MONTERREY      PTSUNNY   88  66  48 NW9       29.87F HX  90
NUEVO LAREDO   PTSUNNY   86  73  66 NE9       29.87  HX  93
PIEDRAS NEGRAS   N/A    N/A N/A N/A MISG        N/A
REYNOSA          N/A    N/A N/A N/A MISG        N/A
SALTILLO       MOSUNNY   73  61  64 N17       30.14F
TORREON        PTSUNNY   82  66  57 NW9       30.00F
CD. VICTORIA   CLOUDY    82  72  69 S3        29.85

WESTERN MEXICO

CITY           SKY/WX    TMP DP  RH WIND       PRES   REMARKS
AGUASCALIENTES SUNNY     77  43  29 NE9       30.10
COLIMA           N/A     72  72 100 SW6       29.95R FOG
DEL BAJIO      MOSUNNY   81  52  36 E8        30.13F
GUADALAJARA    PTSUNNY   75  61  60 SE10      30.04
MANZANILLO     PTSUNNY   86  79  79 S6        29.74S HX  99
MAZATLAN       MOSUNNY   88  77  70 W6        29.72F HX 100
P. VALLARTA    CLOUDY    86  79  79 SW9       29.74F HX  99
URUAPAN        CLOUDY    68  64  88 CALM      30.09R
ZACATECAS      SUNNY     75  46  35 CALM      30.16F

CENTRAL MEXICO

CITY           SKY/WX    TMP DP  RH WIND       PRES   REMARKS
CUERNAVACA     PTSUNNY   75  64  69 CALM      29.99F
MEXICO CITY    PTSUNNY   73  48  40 E16       30.18S
MORELIA        PTSUNNY   64  61  88 S8        30.09  THUNDER
POZA RICA      SUNNY     88  73  62 E12       29.85R HX  96
PUEBLA         PTSUNNY   72  55  56 CALM      30.21R
QUERETARO      PTSUNNY   77  50  38 NE12      30.16F
S. LUIS POTOSI MOSUNNY   79  45  29 E13       30.11F
TAMPICO        PTSUNNY   84  73  70 NE12      29.81F HX  91
TOLUCA         PTSUNNY   66  54  63 S9        30.27S

SOUTHERN MEXICO

CITY           SKY/WX    TMP DP  RH WIND       PRES   REMARKS
ACAPULCO       PTSUNNY   86  75  70 SW5       29.77F HX  95
B. DE HUATULCO CLOUDY    81  72  74 CALM      29.86
OAXACA         MOCLDY    75  59  57 CALM      30.07S
P. ESCONDIDO   CLOUDY    84  75  74 SW9       29.88S HX  92
VERACRUZ       MOCLDY    86  75  70 NE6       29.81R HX  95
ZIHUATANEJO    LGT RAIN  86  79  79 E3        29.79F HX  99

YUCATAN PENINSULA

CITY           SKY/WX    TMP DP  RH WIND       PRES   REMARKS
CAMPECHE       MOCLDY    86  77  74 W12G23    29.75R HX  97
CANCUN         CLOUDY    84  79  84 SE10      29.78R HX  96
CHETUMAL       MOCLDY    86  77  74 E6        29.81  HX  97
CD. DEL CARMEN PTCLDY    86  73  66 NW6       29.79  HX  93
COZUMEL        MOCLDY    79  75  89 S5        29.78S
MERIDA         CLOUDY    82  79  89 S5        29.77R HX  93
MINATITLAN     CLEAR     86  68  54 CALM      29.74
TAPACHULA      CLOUDY    81  79  94 N7        29.80R
TUX. GUTIERREZ CLOUDY    77  72  83 CALM      29.86R
VILLAHERMOSA   MOCLDY    86  75  70 N8        29.81R HX  95

CENTRAL AMERICA

CITY           SKY/WX    TMP DP  RH WIND       PRES   REMARKS
BELIZE CITY    PTCLDY    81  77  89 CALM      29.83R
MANAGUA        PTCLDY    84  73  70 E5        29.77R HX  91

CARIBBEAN

CITY           SKY/WX    TMP DP  RH WIND       PRES   REMARKS
CURACAO        PTCLDY    84  77  79 E16       29.89R HX  94
KINGSTON       MOCLDY    88  77  70 SE16      29.89R HX 100
NASSAU         CLOUDY    84  77  79 CALM      29.99R HX  94
SAN JUAN       PTCLDY    84  79  84 E15       30.02R HX  96
SANTO DOMINGO  MOCLDY    81  75  83 CALM      29.94
ST. CROIX      PTCLDY    84  77  79 E12       30.01R HX  94
ST. KITTS      PTCLDY    82  75  78 NE20      30.00R
ST. MAARTEN    PTCLDY    84  77  79 E10       30.00S HX  94
ST. THOMAS     CLEAR     84  79  84 E8        30.01R HX  96

$$





USA.gov is the U.S. government's official web portal to all federal, state and local government web resources and services.